EW7114 Weather Reports


Display with metric or nautical units.
time (UTC)temp
F
wind
direction
speed
MPH
gust
MPH
rain 1hr
in
rain 24hr
in
rain mn
in
humidity
%
barometer
mb
20260906062051 72 137 15.0 20.0 0.00 0.00 0.00 27 1004.1
20260906061555 72 153 14.0 21.0 0.00 0.00 0.00 27 1004.0
20260906061046 72 138 15.0 21.0 0.00 0.00 0.00 28 1004.0
20260906060545 71 166 14.0 22.0 0.00 0.00 0.00 28 1004.0
20260906060044 71 164 12.0 18.0 0.00 0.00 0.00 29 1003.9
20260906055543 71 158 14.0 19.0 0.00 0.00 0.00 28 1003.9
20260906055043 70 161 11.0 17.0 0.00 0.00 0.00 28 1003.8
20260906054542 71 152 12.0 17.0 0.00 0.00 0.00 28 1003.7
20260906054042 71 155 11.0 17.0 0.00 0.00 0.00 27 1003.7
20260906053543 72 155 13.0 19.0 0.00 0.00 0.00 27 1003.7
20260906053042 72 128 13.0 19.0 0.00 0.00 0.00 27 1003.6
20260906052542 72 163 13.0 20.0 0.00 0.00 0.00 27 1003.7
20260906052041 72 157 14.0 21.0 0.00 0.00 0.00 28 1003.7
20260906051549 71 154 13.0 19.0 0.00 0.00 0.00 28 1003.8
20260906051042 72 156 13.0 19.0 0.00 0.00 0.00 28 1003.7
20260906050546 72 136 13.0 18.0 0.00 0.00 0.00 27 1003.7
20260906050047 72 145 14.0 18.0 0.00 0.00 0.00 28 1003.6
20260906045545 72 168 11.0 16.0 0.00 0.00 0.00 27 1003.7
20260906045041 72 153 12.0 18.0 0.00 0.00 0.00 28 1003.7
20260906044542 71 160 12.0 18.0 0.00 0.00 0.00 28 1003.8
20260906044042 71 151 12.0 17.0 0.00 0.00 0.00 28 1003.8
20260906043540 71 144 11.0 16.0 0.00 0.00 0.00 28 1003.8
20260906043040 71 138 12.0 16.0 0.00 0.00 0.00 28 1003.7
20260906042542 71 141 11.0 15.0 0.00 0.00 0.00 29 1003.6
20260906042039 71 136 11.0 16.0 0.00 0.00 0.00 29 1003.6
20260906041639 70 142 11.0 16.0 0.00 0.00 0.00 29 1003.5
20260906041038 70 155 11.0 16.0 0.00 0.00 0.00 29 1003.6
20260906040539 68 140 12.0 16.0 0.00 0.00 0.00 30 1003.4
20260906040042 68 145 8.0 12.0 0.00 0.00 0.00 30 1003.5
20260906035539 69 167 9.0 15.0 0.00 0.00 0.00 28 1003.4
20260906035040 69 143 10.0 15.0 0.00 0.00 0.00 28 1003.3
20260906034538 70 143 9.0 15.0 0.00 0.00 0.00 28 1003.3
20260906034037 71 136 11.0 15.0 0.00 0.00 0.00 28 1003.2
20260906033537 71 159 10.0 16.0 0.00 0.00 0.00 26 1003.2
20260906033045 71 138 11.0 16.0 0.00 0.00 0.00 27 1003.0
20260906032537 71 145 10.0 13.0 0.00 0.00 0.00 27 1003.0
20260906032039 72 128 10.0 15.0 0.00 0.00 0.00 27 1002.9
20260906031636 72 147 10.0 16.0 0.00 0.00 0.00 27 1002.9
20260906031036 73 143 11.0 17.0 0.00 0.00 0.00 27 1002.8
20260906030536 73 145 10.0 18.0 0.00 0.00 0.00 26 1002.7
20260906030038 72 153 12.0 18.0 0.00 0.00 0.00 26 1002.6
20260906025535 73 131 10.0 15.0 0.00 0.00 0.00 27 1002.5
20260906025036 73 145 10.0 15.0 0.00 0.00 0.00 26 1002.5
20260906024537 73 143 9.0 14.0 0.00 0.00 0.00 26 1002.4
20260906024035 74 147 11.0 13.0 0.00 0.00 0.00 24 1002.3
20260906023536 74 157 11.0 15.0 0.00 0.00 0.00 24 1002.3
20260906023037 74 159 11.0 15.0 0.00 0.00 0.00 24 1002.2
20260906022535 73 152 11.0 16.0 0.00 0.00 0.00 25 1002.1
20260906022034 73 155 9.0 12.0 0.00 0.00 0.00 26 1002.0
20260906021533 74 148 9.0 14.0 0.00 0.00 0.00 26 1001.9
20260906021033 75 168 9.0 14.0 0.00 0.00 0.00 25 1001.9
20260906020534 75 153 10.0 14.0 0.00 0.00 0.00 26 1001.8
20260906020034 76 162 10.0 17.0 0.00 0.00 0.00 24 1001.9
20260906015533 77 162 10.0 18.0 0.00 0.00 0.00 23 1001.9
20260906015033 78 157 10.0 19.0 0.00 0.00 0.00 23 1001.9
20260906014535 79 158 13.0 23.0 0.00 0.00 0.00 22 1001.9
20260906014032 79 188 14.0 23.0 0.00 0.00 0.00 21 1001.9
20260906013532 79 169 14.0 21.0 0.00 0.00 0.00 21 1001.8
20260906013033 80 165 15.0 23.0 0.00 0.00 0.00 21 1002.0
20260906012535 80 173 14.0 23.0 0.00 0.00 0.00 22 1002.0
20260906012031 81 165 13.0 20.0 0.00 0.00 0.00 22 1002.0
20260906011536 81 161 13.0 20.0 0.00 0.00 0.00 22 1002.0
20260906011031 82 134 16.0 24.0 0.00 0.00 0.00 21 1001.9
20260906010530 82 183 16.0 24.0 0.00 0.00 0.00 21 1002.0
20260906010032 82 176 15.0 26.0 0.00 0.00 0.00 21 1001.9
20260906005529 82 172 16.0 26.0 0.00 0.00 0.00 21 1001.9
20260906005029 83 193 17.0 23.0 0.00 0.00 0.00 21 1001.9
20260906004529 83 169 16.0 25.0 0.00 0.00 0.00 21 1001.9
20260906004028 83 169 16.0 25.0 0.00 0.00 0.00 21 1001.9
20260906003528 84 176 14.0 23.0 0.00 0.00 0.00 21 1001.9
20260906003028 84 157 14.0 23.0 0.00 0.00 0.00 22 1001.9
20260906002529 84 153 13.0 32.0 0.00 0.00 0.00 22 1001.9
20260906002026 83 129 20.0 32.0 0.00 0.00 0.00 22 1001.9
20260906001526 83 140 11.0 23.0 0.00 0.00 0.00 24 1001.9
20260906001025 84 151 16.0 24.0 0.00 0.00 0.00 23 1002.0
20260906000525 84 146 14.0 21.0 0.00 0.00 0.00 22 1001.9
20260906000025 84 180 12.0 24.0 0.00 0.00 0.00 22 1002.0
20260905235524 84 172 18.0 28.0 0.00 0.00 0.00 21 1002.2
20260905235025 84 135 20.0 29.0 0.00 0.00 0.00 22 1002.1
20260905234523 84 165 18.0 29.0 0.00 0.00 0.00 21 1002.0
20260905234024 85 179 18.0 28.0 0.00 0.00 0.00 21 1002.1
20260905233524 85 138 16.0 23.0 0.00 0.00 0.00 21 1002.2
20260905233021 85 190 12.0 25.0 0.00 0.00 0.00 21 1002.1
20260905232522 85 161 16.0 30.0 0.00 0.00 0.00 21 1002.2
20260905232021 85 170 19.0 30.0 0.00 0.00 0.00 21 1002.2
20260905231520 85 222 19.0 29.0 0.00 0.00 0.00 21 1002.1
20260905231021 85 164 15.0 27.0 0.00 0.00 0.00 21 1002.3
20260905230519 85 180 18.0 29.0 0.00 0.00 0.00 22 1002.4
20260905230019 85 172 16.0 29.0 0.00 0.00 0.00 22 1002.4
20260905225519 85 196 19.0 29.0 0.00 0.00 0.00 22 1002.4
20260905225021 85 185 20.0 26.0 0.00 0.00 0.00 21 1002.5
20260905224530 85 192 14.0 26.0 0.00 0.00 0.00 22 1002.5
20260905224021 85 152 15.0 30.0 0.00 0.00 0.00 21 1002.5
20260905223518 85 182 21.0 30.0 0.00 0.00 0.00 21 1002.7
20260905223017 85 153 13.0 26.0 0.00 0.00 0.00 21 1002.6
20260905222516 85 179 17.0 29.0 0.00 0.00 0.00 21 1002.6
20260905222015 85 212 22.0 29.0 0.00 0.00 0.00 20 1002.7
20260905221517 85 158 14.0 27.0 0.00 0.00 0.00 21 1002.8
20260905221019 85 174 19.0 27.0 0.00 0.00 0.00 20 1002.8
20260905220514 84 181 20.0 27.0 0.00 0.00 0.00 20 1002.9
20260905220014 84 171 17.0 29.0 0.00 0.00 0.00 22 1002.8
20260905215514 85 166 18.0 29.0 0.00 0.00 0.00 21 1002.8
20260905215013 84 198 14.0 28.0 0.00 0.00 0.00 21 1003.0
20260905214513 84 199 17.0 28.0 0.00 0.00 0.00 20 1003.0
20260905214013 84 188 18.0 24.0 0.00 0.00 0.00 20 1003.2
20260905213512 83 145 19.0 29.0 0.00 0.00 0.00 22 1003.1
20260905213012 83 160 20.0 27.0 0.00 0.00 0.00 21 1003.0
20260905212513 83 149 20.0 27.0 0.00 0.00 0.00 22 1003.2
20260905212015 82 167 23.0 29.0 0.00 0.00 0.00 22 1003.3
20260905211511 83 122 19.0 28.0 0.00 0.00 0.00 22 1003.2
20260905211011 83 184 18.0 28.0 0.00 0.00 0.00 22 1003.4
20260905210514 84 151 17.0 28.0 0.00 0.00 0.00 21 1003.4
20260905210010 84 175 18.0 27.0 0.00 0.00 0.00 21 1003.3
20260905205509 83 167 18.0 27.0 0.00 0.00 0.00 21 1003.5
20260905205009 83 145 21.0 31.0 0.00 0.00 0.00 21 1003.6
20260905204509 83 163 15.0 28.0 0.00 0.00 0.00 23 1003.5
20260905204008 83 158 18.0 28.0 0.00 0.00 0.00 21 1003.7
20260905203507 82 135 19.0 28.0 0.00 0.00 0.00 22 1003.6
20260905203008 82 185 14.0 26.0 0.00 0.00 0.00 22 1003.7
20260905202507 82 161 21.0 29.0 0.00 0.00 0.00 22 1003.8
20260905202006 81 147 15.0 31.0 0.00 0.00 0.00 23 1003.8
20260905201507 82 149 21.0 33.0 0.00 0.00 0.00 22 1003.8
20260905201010 81 155 25.0 33.0 0.00 0.00 0.00 23 1003.9
20260905200506 83 142 20.0 30.0 0.00 0.00 0.00 22 1003.8
20260905200004 83 173 19.0 30.0 0.00 0.00 0.00 23 1003.8
20260905195505 82 188 21.0 29.0 0.00 0.00 0.00 23 1003.8
20260905195007 81 155 20.0 34.0 0.00 0.00 0.00 24 1003.8
20260905194504 82 134 20.0 29.0 0.00 0.00 0.00 23 1003.9
20260905194103 82 177 19.0 25.0 0.00 0.00 0.00 22 1004.1
20260905193502 82 127 19.0 24.0 0.00 0.00 0.00 23 1004.1
20260905193004 81 143 18.0 28.0 0.00 0.00 0.00 23 1004.3
20260905192501 81 140 14.0 26.0 0.00 0.00 0.00 23 1004.3
20260905192100 81 182 19.0 26.0 0.00 0.00 0.00 22 1004.5
20260905191559 80 145 16.0 28.0 0.00 0.00 0.00 24 1004.5
20260905191059 80 164 18.0 28.0 0.00 0.00 0.00 23 1004.5
20260905190558 80 189 18.0 27.0 0.00 0.00 0.00 23 1004.6
20260905190059 80 144 18.0 27.0 0.00 0.00 0.00 23 1004.6
20260905185559 80 166 15.0 26.0 0.00 0.00 0.00 24 1004.7
20260905185058 80 137 18.0 26.0 0.00 0.00 0.00 23 1004.7
20260905184601 80 126 16.0 28.0 0.00 0.00 0.00 24 1004.9
20260905184057 79 149 16.0 28.0 0.00 0.00 0.00 23 1004.8
20260905183557 79 126 18.0 25.0 0.00 0.00 0.00 23 1005.0
20260905183059 79 186 14.0 24.0 0.00 0.00 0.00 24 1005.0
20260905182557 79 140 14.0 24.0 0.00 0.00 0.00 23 1005.2
20260905182056 79 151 15.0 26.0 0.00 0.00 0.00 24 1005.3
20260905181609 79 153 17.0 26.0 0.00 0.00 0.00 24 1005.4
20260905181057 79 147 13.0 26.0 0.00 0.00 0.00 25 1005.4
20260905180554 78 134 19.0 26.0 0.00 0.00 0.00 25 1005.5
20260905180053 78 131 19.0 28.0 0.00 0.00 0.00 26 1005.4
20260905175554 78 142 17.0 26.0 0.00 0.00 0.00 25 1005.4
20260905175055 78 165 19.0 25.0 0.00 0.00 0.00 26 1005.3
20260905174554 78 175 18.0 30.0 0.00 0.00 0.00 24 1005.5
20260905174052 77 167 20.0 34.0 0.00 0.00 0.00 25 1005.5
20260905173552 78 122 20.0 34.0 0.00 0.00 0.00 24 1005.4
20260905173051 78 128 18.0 24.0 0.00 0.00 0.00 26 1005.4
20260905172551 78 147 18.0 24.0 0.00 0.00 0.00 25 1005.4
20260905172049 78 124 17.0 26.0 0.00 0.00 0.00 24 1005.4
20260905171549 77 151 18.0 28.0 0.00 0.00 0.00 24 1005.5
20260905171048 77 137 18.0 28.0 0.00 0.00 0.00 25 1005.4
20260905170548 77 131 17.0 28.0 0.00 0.00 0.00 25 1005.4
20260905170050 77 180 21.0 29.0 0.00 0.00 0.00 25 1005.5
20260905165547 77 138 21.0 28.0 0.00 0.00 0.00 25 1005.5
20260905165048 77 139 20.0 28.0 0.00 0.00 0.00 25 1005.4
20260905164547 76 148 19.0 25.0 0.00 0.00 0.00 26 1005.4
20260905164050 76 152 19.0 26.0 0.00 0.00 0.00 25 1005.4
20260905163547 76 136 18.0 26.0 0.00 0.00 0.00 26 1005.4
20260905163049 76 145 19.0 24.0 0.00 0.00 0.00 26 1005.5
20260905162547 77 158 14.0 28.0 0.00 0.00 0.00 26 1005.4
20260905162045 77 135 14.0 25.0 0.00 0.00 0.00 26 1005.4
20260905161543 76 161 15.0 25.0 0.00 0.00 0.00 26 1005.4
20260905161043 75 122 17.0 24.0 0.00 0.00 0.00 28 1005.3
20260905160541 75 122 17.0 24.0 0.00 0.00 0.00 27 1005.5
20260905160108 75 138 17.0 21.0 0.00 0.00 0.00 27 1005.4
20260905155542 75 138 15.0 22.0 0.00 0.00 0.00 27 1005.4
20260905155139 74 153 15.0 22.0 0.00 0.00 0.00 28 1005.5
20260905154540 74 136 16.0 22.0 0.00 0.00 0.00 27 1005.5
20260905154039 74 149 14.0 22.0 0.00 0.00 0.00 27 1005.5
20260905153538 74 122 15.0 21.0 0.00 0.00 0.00 26 1005.5
20260905153037 74 131 13.0 20.0 0.00 0.00 0.00 27 1005.5
20260905152537 74 130 11.0 23.0 0.00 0.00 0.00 29 1005.6
20260905152034 73 116 15.0 23.0 0.00 0.00 0.00 27 1005.6
20260905151535 72 137 15.0 20.0 0.00 0.00 0.00 29 1005.6
20260905151032 72 124 14.0 21.0 0.00 0.00 0.00 31 1005.6
20260905150531 71 115 16.0 20.0 0.00 0.00 0.00 31 1005.5
20260905150030 71 126 15.0 20.0 0.00 0.00 0.00 32 1005.6
20260905145527 71 117 16.0 24.0 0.00 0.00 0.00 31 1005.6
20260905145029 70 148 12.0 21.0 0.00 0.00 0.00 34 1005.6
20260905144526 69 128 11.0 16.0 0.00 0.00 0.00 35 1005.6
20260905144031 69 133 12.0 16.0 0.00 0.00 0.00 35 1005.6
20260905143527 68 149 11.0 15.0 0.00 0.00 0.00 35 1005.6
20260905143025 67 132 12.0 14.0 0.00 0.00 0.00 35 1005.6
20260905142524 66 139 8.0 13.0 0.00 0.00 0.00 37 1005.6
20260905142023 65 120 10.0 13.0 0.00 0.00 0.00 37 1005.4
20260905141523 64 133 8.0 13.0 0.00 0.00 0.00 38 1005.3
20260905141022 63 116 9.0 13.0 0.00 0.00 0.00 39 1005.2
20260905140525 62 131 8.0 13.0 0.00 0.00 0.00 39 1005.2
20260905140021 62 113 10.0 15.0 0.00 0.00 0.00 39 1005.1
20260905135520 61 146 11.0 15.0 0.00 0.00 0.00 40 1005.0
20260905135019 60 138 11.0 16.0 0.00 0.00 0.00 40 1004.9
20260905134521 59 152 9.0 14.0 0.00 0.00 0.00 41 1005.0
20260905134021 59 131 8.0 12.0 0.00 0.00 0.00 41 1004.9
20260905133517 59 161 8.0 12.0 0.00 0.00 0.00 39 1004.9
20260905133016 58 145 9.0 14.0 0.00 0.00 0.00 41 1004.7
20260905132517 58 151 8.0 14.0 0.00 0.00 0.00 42 1004.6
20260905132015 56 145 10.0 13.0 0.00 0.00 0.00 43 1004.5
20260905131514 56 157 7.0 11.0 0.00 0.00 0.00 43 1004.4
20260905131013 57 168 8.0 11.0 0.00 0.00 0.00 41 1004.4
20260905130512 59 165 8.0 14.0 0.00 0.00 0.00 40 1004.3
20260905130011 58 147 10.0 14.0 0.00 0.00 0.00 41 1004.3
20260905125513 58 172 8.0 10.0 0.00 0.00 0.00 40 1004.3
20260905125009 60 192 7.0 11.0 0.00 0.00 0.00 39 1004.2
20260905124508 60 145 7.0 11.0 0.00 0.00 0.00 39 1004.2
20260905124009 60 132 9.0 11.0 0.00 0.00 0.00 39 1004.1
20260905123505 61 159 8.0 15.0 0.00 0.00 0.00 38 1004.1
20260905123004 61 124 10.0 15.0 0.00 0.00 0.00 38 1004.0
20260905122508 61 116 10.0 16.0 0.00 0.00 0.00 39 1003.9
20260905122005 61 143 10.0 15.0 0.00 0.00 0.00 38 1003.8
20260905121502 63 153 9.0 15.0 0.00 0.00 0.00 37 1003.8
20260905121005 63 125 11.0 18.0 0.00 0.00 0.00 37 1003.8
20260905120501 63 137 13.0 18.0 0.00 0.00 0.00 37 1003.7
20260905120118 63 169 8.0 16.0 0.00 0.00 0.00 36 1003.8
20260905115600 62 122 8.0 17.0 0.00 0.00 0.00 37 1003.6
20260905115103 62 147 10.0 17.0 0.00 0.00 0.00 37 1003.7
20260905114559 62 117 10.0 15.0 0.00 0.00 0.00 37 1003.6
20260905114058 63 138 11.0 16.0 0.00 0.00 0.00 37 1003.6
20260905113559 63 145 11.0 17.0 0.00 0.00 0.00 36 1003.6
20260905113059 65 134 9.0 19.0 0.00 0.00 0.00 36 1003.6
20260905112558 65 122 13.0 22.0 0.00 0.00 0.00 35 1003.6
20260905112057 65 129 15.0 21.0 0.00 0.00 0.00 35 1003.6
20260905111610 65 131 12.0 21.0 0.00 0.00 0.00 36 1003.7
20260905111056 64 132 12.0 19.0 0.00 0.00 0.00 36 1003.6
20260905110555 63 139 14.0 21.0 0.00 0.00 0.00 38 1003.6
20260905110100 63 134 12.0 22.0 0.00 0.00 0.00 37 1003.5
20260905105556 64 134 14.0 22.0 0.00 0.00 0.00 37 1003.5
20260905105054 63 139 13.0 22.0 0.00 0.00 0.00 38 1003.4
20260905104554 63 132 16.0 22.0 0.00 0.00 0.00 38 1003.3
20260905104054 63 131 15.0 21.0 0.00 0.00 0.00 38 1003.3
20260905103554 63 133 15.0 21.0 0.00 0.00 0.00 39 1003.3
20260905103054 63 149 14.0 22.0 0.00 0.00 0.00 40 1003.3
20260905102551 63 134 13.0 22.0 0.00 0.00 0.00 40 1003.3
20260905102051 62 138 14.0 20.0 0.00 0.00 0.00 41 1003.3
20260905101550 62 130 14.0 21.0 0.00 0.00 0.00 40 1003.2
20260905101049 63 133 13.0 21.0 0.00 0.00 0.00 41 1003.2
20260905100548 63 144 15.0 21.0 0.00 0.00 0.00 41 1003.1
20260905100052 63 143 15.0 21.0 0.00 0.00 0.00 40 1003.0
20260905095547 64 145 14.0 19.0 0.00 0.00 0.00 39 1003.0
20260905095046 67 143 14.0 21.0 0.00 0.00 0.00 36 1002.9
20260905094546 69 151 16.0 22.0 0.00 0.00 0.00 33 1002.9
20260905094044 69 149 15.0 23.0 0.00 0.00 0.00 32 1002.7
20260905093544 68 155 16.0 23.0 0.00 0.00 0.00 32 1002.7
20260905093043 69 168 15.0 23.0 0.00 0.00 0.00 33 1002.6
20260905092546 69 156 16.0 21.0 0.00 0.00 0.00 33 1002.6
20260905092042 69 158 13.0 18.0 0.00 0.00 0.00 33 1002.6
20260905091613 69 183 14.0 23.0 0.00 0.00 0.00 32 1002.4
20260905091040 69 153 15.0 23.0 0.00 0.00 0.00 33 1002.4
20260905090540 69 157 18.0 21.0 0.00 0.00 0.00 33 1002.4
20260905090040 68 160 14.0 21.0 0.00 0.00 0.00 34 1002.4
20260905085539 67 170 16.0 20.0 0.00 0.00 0.00 36 1002.3
20260905085038 65 152 15.0 20.0 0.00 0.00 0.00 40 1002.4
20260905084540 64 145 14.0 20.0 0.00 0.00 0.00 42 1002.4
20260905084038 64 130 13.0 18.0 0.00 0.00 0.00 42 1002.4
20260905083537 64 129 11.0 17.0 0.00 0.00 0.00 43 1002.5
20260905083037 64 153 13.0 17.0 0.00 0.00 0.00 43 1002.4
20260905082536 64 135 12.0 19.0 0.00 0.00 0.00 42 1002.3
20260905082036 65 152 12.0 20.0 0.00 0.00 0.00 41 1002.3
20260905081535 65 140 11.0 14.0 0.00 0.00 0.00 40 1002.3
20260905081034 65 153 11.0 15.0 0.00 0.00 0.00 39 1002.2
20260905080536 66 145 10.0 14.0 0.00 0.00 0.00 37 1002.2
20260905080516 66 141 10.0 14.0 0.00 0.00 0.00 37 1002.2
20260905080040 67 155 10.0 14.0 0.00 0.00 0.00 36 1002.2
20260905075532 67 159 11.0 17.0 0.00 0.00 0.00 36 1002.1
20260905075030 66 155 12.0 17.0 0.00 0.00 0.00 39 1002.1
20260905074530 62 153 11.0 17.0 0.00 0.00 0.00 45 1002.0
20260905074033 63 143 12.0 17.0 0.00 0.00 0.00 45 1002.0
20260905073529 64 127 12.0 16.0 0.00 0.00 0.00 43 1002.0
20260905073028 67 140 11.0 16.0 0.00 0.00 0.00 40 1001.9
20260905072527 65 161 14.0 16.0 0.00 0.00 0.00 40 1001.8
20260905072026 64 149 12.0 20.0 0.00 0.00 0.00 43 1001.7
20260905071524 62 141 10.0 15.0 0.00 0.00 0.00 46 1001.6
20260905071027 63 137 10.0 17.0 0.00 0.00 0.00 45 1001.5
20260905070521 63 156 12.0 19.0 0.00 0.00 0.00 44 1001.4
20260905070024 64 144 14.0 19.0 0.00 0.00 0.00 43 1001.3
20260905065519 65 148 12.0 17.0 0.00 0.00 0.00 42 1001.2
20260905065018 66 130 11.0 18.0 0.00 0.00 0.00 41 1001.2
20260905064519 67 129 12.0 20.0 0.00 0.00 0.00 41 1001.2
20260905064016 66 136 12.0 18.0 0.00 0.00 0.00 41 1001.1
20260905063515 66 123 12.0 18.0 0.00 0.00 0.00 41 1001.1
20260905063015 66 131 11.0 16.0 0.00 0.00 0.00 41 1001.0
20260905062518 66 122 13.0 16.0 0.00 0.00 0.00 41 1001.0